GEFSSE_500_meanwind_018.txt.gz
Wind_Speed
5 7 7 8 9 9 10 9 7 6 6 5 5 5 6 6 6 6 5 6 6 7 7 10 17 19 19 16 14 12 10 7 6 5 4 4 2 1 5 11 14 14 14
4 5 6 8 9 10 10 10 8 6 6 5 5 6 6 7 7 6 5 5 5 5 4 5 14 18 19 18 16 14 11 9 7 6 5 4 3 2 2 5 11 14 16
1 3 5 7 8 9 10 11 10 7 6 6 6 6 6 7 6 5 4 4 4 4 4 1 9 14 17 18 17 15 14 11 9 8 7 6 4 3 2 2 4 9 14
1 2 4 7 8 9 10 10 11 9 6 7 7 8 7 6 6 5 4 3 3 2 2 1 6 10 14 15 15 14 14 14 12 10 9 7 6 4 3 2 2 5 10
3 3 4 7 9 10 10 10 10 9 7 7 8 9 8 6 5 4 3 3 3 3 1 2 4 7 9 11 12 11 11 14 13 11 10 8 7 5 4 3 3 4 8
4 3 4 7 10 11 11 10 10 11 9 8 9 10 9 7 5 4 4 3 4 5 5 4 4 6 7 8 8 9 9 11 12 11 10 8 7 5 5 5 5 5 8
4 2 4 7 10 12 12 11 10 11 11 10 9 10 9 8 6 6 5 6 6 7 7 7 7 6 7 7 7 8 9 10 10 9 8 8 7 7 8 9 9 9 9
3 2 4 8 10 11 12 11 11 12 12 12 10 10 9 8 7 7 8 8 8 8 9 9 10 9 8 8 9 9 10 11 11 10 9 8 7 7 8 10 10 11 11
4 2 4 7 9 11 11 11 11 12 13 13 11 10 10 8 7 8 9 10 10 10 10 11 11 12 11 10 10 11 12 13 13 12 11 10 8 8 8 9 10 11 10
5 3 5 7 9 11 12 11 11 12 14 14 12 11 10 9 9 10 10 11 10 10 11 11 12 13 13 13 13 13 14 15 15 14 13 12 10 9 8 9 10 10 8
5 3 5 7 9 11 12 12 12 13 15 15 14 13 12 10 10 11 12 12 11 10 11 11 11 12 13 14 15 16 17 17 17 16 15 13 12 11 10 10 11 11 10
4 5 6 8 9 11 12 13 13 14 15 15 15 15 13 11 11 12 13 13 12 10 10 11 11 12 13 14 16 17 19 19 18 17 16 15 14 13 12 12 12 12 12
6 7 8 9 10 11 13 14 14 15 15 15 15 16 14 12 12 13 14 14 12 11 10 11 11 11 12 13 16 18 19 20 20 19 17 16 16 15 14 14 14 14 13
9 9 10 10 11 11 12 14 15 15 15 14 14 15 14 12 12 12 14 14 13 11 11 11 10 10 11 12 14 16 18 21 21 21 19 18 18 17 16 17 17 16 15
12 12 13 12 13 13 13 14 15 15 15 15 14 13 13 13 12 12 13 14 13 11 11 11 11 10 10 11 12 14 17 19 20 20 19 18 18 17 17 18 19 19 18
16 16 16 15 15 15 14 15 15 15 15 15 14 13 13 13 12 12 13 14 14 13 12 12 11 10 10 10 11 12 15 17 19 18 17 16 16 16 16 17 18 20 20
19 19 18 18 17 17 17 17 17 16 16 15 14 13 13 13 12 13 13 14 14 14 13 13 12 11 10 10 10 11 13 16 18 18 18 16 15 15 15 16 17 19 20
20 21 20 20 19 19 18 18 18 17 16 15 14 13 13 13 13 13 14 15 15 15 14 14 13 12 11 10 10 10 12 14 16 17 17 18 17 17 16 16 17 18 19
21 22 22 21 21 21 20 19 18 17 16 15 15 15 15 14 13 14 15 15 16 15 15 14 14 13 12 11 11 10 11 13 14 15 16 17 19 19 18 17 16 17 17
21 22 22 22 23 23 21 19 18 18 19 18 18 17 16 15 14 14 14 16 16 16 16 16 16 15 14 12 11 10 10 10 12 13 14 16 18 19 20 19 17 16 16
21 22 23 24 24 24 23 20 19 19 21 22 21 19 18 17 16 15 14 15 16 17 17 17 18 17 16 14 12 11 9 8 9 10 12 15 17 19 20 20 19 17 16
22 23 24 24 25 25 24 23 22 22 23 24 23 22 22 20 19 18 16 16 16 18 19 20 20 19 18 17 15 13 11 9 8 8 10 13 15 17 19 20 20 19 18
23 25 25 25 26 26 26 26 26 25 26 26 26 26 25 24 22 21 19 19 19 20 21 23 22 22 21 20 18 16 13 12 11 10 9 10 12 15 17 19 20 20 20
25 25 25 25 27 28 28 28 28 29 29 29 29 28 27 26 25 24 23 22 23 23 24 26 26 26 24 23 21 19 17 15 13 12 11 10 10 12 14 16 17 18 19
26 26 26 27 28 29 29 29 30 30 31 31 30 30 29 29 28 26 25 25 26 28 28 28 29 29 28 26 24 22 20 19 17 14 13 13 13 13 13 13 15 16 17
27 27 27 27 27 28 29 30 30 31 31 31 29 29 28 28 28 27 27 27 27 28 30 31 30 30 31 29 27 25 23 22 19 17 16 15 15 15 15 15 14 15 15

GEFSSE_500_meanwind_024.txt.gz
Wind_Speed
3 4 7 10 12 13 14 14 13 11 9 8 7 7 7 7 6 6 5 5 5 6 7 8 13 17 18 16 12 10 8 6 4 5 6 6 6 8 10 12 13 14 12
2 3 6 9 12 13 14 14 13 12 10 8 7 7 7 7 7 7 5 4 4 4 4 5 9 16 19 18 15 12 10 7 5 5 5 5 5 5 6 9 12 14 14
4 3 6 9 12 13 14 13 13 13 11 9 7 7 7 8 8 8 6 5 4 3 3 2 5 12 18 19 17 14 11 9 7 6 6 6 6 5 4 6 8 11 13
6 4 5 8 11 12 13 12 12 13 12 10 8 8 8 9 8 8 6 5 4 4 3 1 3 8 15 18 18 16 13 11 10 9 8 8 7 6 5 5 6 8 11
7 5 5 7 10 11 12 11 11 12 13 11 9 9 9 9 8 7 6 6 5 4 3 2 2 5 11 15 17 17 16 15 13 11 10 9 7 7 5 4 4 5 8
7 6 5 6 8 10 11 11 11 12 13 12 10 10 10 9 8 7 6 6 5 4 3 2 1 3 7 12 14 16 17 17 16 15 13 10 9 8 5 4 3 3 6
8 7 5 6 7 9 10 10 11 11 12 12 11 10 10 10 9 7 6 6 6 5 3 2 2 3 5 8 11 12 14 15 16 16 15 12 10 9 6 5 4 4 5
8 7 6 6 7 9 9 10 11 12 12 13 13 12 11 11 9 8 7 7 6 6 5 5 5 5 6 7 8 9 11 13 14 14 13 11 10 9 6 5 5 6 7
9 8 6 6 7 8 9 9 11 12 12 13 14 13 13 12 11 9 8 8 7 7 7 7 8 8 9 9 10 10 10 11 12 12 11 9 7 6 5 6 6 7 8
8 8 7 7 7 8 8 9 11 12 13 14 15 15 14 13 12 11 9 9 8 8 8 8 9 11 12 12 12 12 12 12 12 12 11 9 7 7 7 7 7 8 8
8 8 8 8 8 8 8 9 11 12 14 15 16 15 15 14 13 12 11 10 10 9 9 9 10 11 13 14 14 15 15 15 15 15 14 12 11 10 9 9 9 8 9
7 8 9 9 9 9 9 10 11 12 13 14 15 15 15 14 14 13 12 11 11 10 10 9 10 12 13 14 15 16 16 17 17 17 16 15 14 12 11 10 10 9 9
8 9 10 11 11 11 11 11 12 13 14 14 15 16 15 15 14 13 12 12 12 11 10 10 10 12 14 15 15 16 17 18 20 19 18 18 16 15 13 12 11 11 11
10 11 12 13 12 13 13 13 13 13 14 15 16 16 16 16 14 14 13 13 12 12 11 10 11 12 13 14 14 15 17 18 20 20 20 20 18 17 15 14 13 12 13
12 13 14 14 14 14 14 14 14 14 14 14 15 16 16 16 15 15 15 13 13 13 12 11 11 11 12 14 14 15 16 18 19 20 20 21 20 19 17 16 15 14 15
13 13 14 15 14 14 15 15 15 15 15 15 15 15 16 16 16 16 16 15 13 13 13 12 11 12 12 14 14 14 15 16 17 18 19 20 20 19 18 17 16 16 17
14 13 14 14 15 15 16 16 16 16 16 16 15 16 16 17 17 17 17 16 14 13 13 13 13 13 13 13 13 14 14 15 16 17 18 18 18 18 17 16 16 16 17
16 15 15 15 16 16 17 17 18 18 18 17 17 16 16 16 17 18 18 17 15 14 14 14 14 14 14 14 14 14 14 14 14 14 16 17 17 17 16 15 15 15 16
18 18 17 16 17 18 18 18 19 19 19 18 18 18 17 17 18 18 19 18 17 15 15 15 15 15 15 15 15 14 14 13 13 13 14 16 17 17 16 15 14 13 14
19 19 19 19 18 19 19 19 19 20 20 19 19 19 20 19 19 19 20 20 19 17 16 15 16 16 16 16 16 15 14 13 13 12 13 15 16 17 16 15 15 14 14
21 20 20 21 20 20 20 20 21 21 21 20 19 21 22 22 22 22 22 22 20 19 18 16 17 18 18 18 17 16 15 13 12 11 11 13 14 14 15 15 15 14 14
21 21 21 21 21 21 22 21 21 22 22 21 22 22 23 23 24 24 24 24 23 22 20 19 18 19 20 20 20 18 16 14 12 10 10 11 12 12 13 14 14 14 14
22 21 21 21 21 22 22 22 22 22 23 23 23 24 24 25 26 26 25 25 25 23 21 21 21 21 21 21 21 20 18 15 12 11 9 9 10 11 12 13 14 15 15
23 22 21 21 21 21 22 22 23 23 23 24 24 25 26 27 27 27 26 27 26 26 24 24 24 23 22 21 22 22 20 18 15 12 11 9 8 9 10 11 13 15 16
23 22 21 20 20 21 21 22 22 23 23 24 25 26 27 27 27 27 27 27 27 27 27 27 25 25 23 22 22 22 22 21 19 16 14 12 10 9 9 9 11 13 15
22 21 20 20 20 21 21 21 22 23 24 25 26 27 27 27 26 26 26 26 27 28 28 27 25 25 23 23 23 23 23 23 23 20 17 15 13 11 11 10 10 11 13

GEFSSE_500_meanwind_030.txt.gz
Wind_Speed
6 8 10 13 15 15 14 13 12 11 9 7 6 6 5 6 5 4 3 3 4 6 8 10 11 12 14 13 12 10 9 10 12 13 15 16 16 18 19 18 16 15 13
3 5 8 10 13 13 13 12 11 10 9 7 6 6 6 6 6 5 4 3 3 5 6 8 10 12 15 15 14 12 10 8 9 9 10 10 12 14 16 15 15 14 14
2 2 5 8 11 12 11 10 10 10 10 9 7 7 7 7 6 5 3 3 3 3 4 6 7 10 14 16 16 14 12 9 7 6 6 7 8 9 11 11 13 13 14
2 2 4 7 9 10 10 9 9 10 10 10 9 8 7 7 7 5 3 3 3 3 3 4 5 7 12 16 17 16 14 11 8 7 5 6 7 7 8 9 10 12 12
3 2 2 5 7 9 9 9 9 10 10 11 10 9 8 8 7 6 4 3 3 3 3 3 3 5 8 13 16 16 15 12 10 9 7 7 7 7 7 7 8 9 11
3 3 2 4 6 8 8 8 9 10 11 11 11 10 9 8 8 7 5 4 4 3 3 3 3 4 6 10 14 15 15 14 12 11 10 9 9 8 8 7 7 7 9
4 3 3 3 4 6 7 7 9 9 10 11 12 11 10 8 8 7 6 6 5 4 4 3 3 3 5 7 11 13 14 14 14 13 13 12 11 10 9 8 7 6 7
4 4 4 3 4 6 6 7 8 9 10 11 12 11 10 9 8 8 7 7 6 6 5 4 4 4 4 5 8 10 11 13 15 15 14 13 13 13 12 9 7 7 6
5 5 5 5 5 6 6 7 7 9 10 11 12 12 11 9 8 8 7 7 7 7 7 6 6 6 7 7 7 9 11 11 12 13 13 13 13 14 13 11 8 7 7
6 7 7 7 6 6 7 7 7 8 9 11 12 12 11 10 9 8 8 8 8 8 8 7 7 8 9 9 9 9 11 11 11 11 12 12 10 11 12 10 8 6 7
6 8 8 8 8 8 8 8 8 8 9 10 10 11 11 10 9 8 8 8 8 8 8 8 8 9 10 11 11 12 12 12 12 12 12 11 10 9 9 9 8 7 7
8 9 10 10 10 10 10 10 10 9 9 9 10 10 11 10 9 9 8 8 8 8 8 9 9 9 10 11 13 14 15 14 13 14 14 13 12 11 9 9 9 9 9
11 11 12 12 12 12 12 12 11 10 10 9 9 9 9 10 9 9 8 8 8 8 9 9 9 9 10 12 14 16 16 16 16 16 16 16 15 14 13 12 11 11 10
13 13 14 15 15 14 14 13 12 12 10 9 9 9 9 9 10 10 9 9 9 9 8 9 9 10 11 12 14 15 16 17 18 18 19 19 18 17 16 15 14 13 12
14 14 15 16 16 16 15 14 14 13 12 10 9 9 8 9 9 10 10 11 10 9 8 9 10 11 12 13 13 14 14 15 17 18 19 20 20 20 19 18 16 15 14
15 15 15 16 16 16 16 15 14 14 13 11 10 9 9 9 9 9 10 11 11 10 9 10 10 11 12 13 14 14 14 14 16 17 19 20 21 21 21 20 19 18 16
15 16 16 16 16 16 15 15 15 15 14 13 12 11 10 9 9 10 11 11 12 11 11 11 11 12 12 13 15 15 14 14 14 16 17 18 20 21 21 21 20 19 18
18 17 16 15 15 15 15 15 15 15 15 14 13 12 12 11 10 11 12 12 12 12 12 12 13 13 13 14 15 15 15 14 14 15 16 17 18 20 20 20 20 19 18
20 19 17 16 16 16 15 15 15 15 15 15 15 14 13 13 12 12 13 13 13 13 13 13 13 14 15 15 16 16 15 15 15 15 15 16 17 18 19 19 18 18 17
22 20 19 18 17 17 17 17 16 16 16 16 16 15 15 15 15 15 15 15 15 15 15 15 15 15 15 16 16 16 16 16 16 16 15 16 16 17 18 18 18 17 17
24 22 21 20 19 19 19 19 18 17 17 17 18 17 17 17 17 17 17 17 17 18 18 17 17 16 16 16 17 17 17 16 16 16 15 15 16 17 18 18 19 18 18
25 24 23 23 22 21 21 21 20 19 18 17 17 17 17 17 18 18 19 20 20 21 20 20 20 18 17 17 18 18 18 18 17 16 15 15 15 16 18 19 20 20 20
27 26 26 25 24 23 23 22 21 20 18 18 17 18 18 19 19 20 22 23 23 23 23 22 22 20 19 19 19 18 19 20 19 18 16 15 14 14 16 19 20 21 21
28 27 28 28 27 26 25 23 22 21 20 19 18 18 19 20 21 22 23 24 25 25 25 25 25 23 22 21 21 20 20 20 21 20 18 16 14 14 15 17 18 20 21
30 30 29 29 28 27 24 23 22 20 20 19 19 20 21 22 23 24 25 25 25 26 26 27 26 25 24 23 21 21 20 20 21 21 20 18 16 14 14 15 16 18 20
32 32 31 29 27 26 23 21 21 21 21 21 21 22 23 24 24 25 25 25 25 25 25 27 28 28 26 24 23 21 21 20 20 22 22 20 18 16 14 15 15 16 18

GEFSSE_500_meanwind_036.txt.gz
Wind_Speed
7 9 12 13 14 13 13 14 14 15 13 12 10 9 8 7 6 4 3 2 2 2 4 6 7 8 8 9 9 8 9 10 12 12 14 16 17 18 18 18 17 15 14
4 6 9 11 12 12 13 13 14 14 14 13 11 9 9 8 7 5 4 3 2 2 3 5 6 8 9 10 10 9 9 8 9 10 12 13 15 16 17 17 16 16 15
2 4 7 9 11 11 12 13 13 14 14 13 11 10 9 8 7 6 4 3 3 3 3 3 4 6 7 10 10 10 9 7 7 7 9 11 13 14 16 16 16 16 15
0 2 4 7 9 10 11 12 13 13 13 13 12 10 9 8 7 7 5 4 4 3 3 3 4 3 5 9 11 11 10 9 7 6 6 7 8 10 12 13 14 16 16
1 2 2 5 7 8 10 11 12 13 13 12 12 10 9 8 8 7 6 5 4 4 3 3 3 2 3 7 10 11 12 11 9 7 6 5 6 6 7 8 9 12 13
1 2 1 3 5 7 8 9 11 12 12 12 12 10 9 8 8 8 7 5 4 4 3 3 2 1 2 4 8 11 12 12 11 8 7 6 5 5 5 6 7 9 10
1 1 0 2 3 5 7 8 9 10 11 12 11 10 9 9 8 8 7 6 5 4 4 3 2 2 2 3 6 8 10 11 12 10 8 8 7 6 6 6 7 7 8
3 1 2 2 3 4 6 7 8 9 10 10 11 11 10 9 8 8 7 6 5 4 4 3 3 2 3 4 4 7 9 10 11 11 10 9 9 8 8 7 7 7 7
5 3 4 4 5 5 6 6 7 8 9 9 10 10 10 9 8 8 7 7 6 5 4 3 3 3 4 5 5 6 8 9 9 10 11 10 10 10 9 9 9 8 8
7 5 6 6 6 6 7 7 7 8 8 9 9 9 9 9 8 7 7 7 6 5 4 3 3 4 5 6 6 6 7 8 9 9 9 10 10 10 9 10 10 9 9
8 8 8 8 8 8 8 9 9 9 9 9 9 9 9 8 8 7 6 6 6 5 4 3 4 5 7 7 8 8 9 9 9 9 9 9 9 9 9 9 10 10 10
9 9 9 10 10 10 10 11 11 11 11 10 9 9 9 8 8 7 6 5 5 5 4 4 4 6 7 8 9 10 10 11 11 11 11 10 10 9 8 7 8 8 8
11 10 10 11 12 13 13 13 13 12 12 12 11 10 9 8 8 7 6 5 5 4 4 4 5 6 7 8 9 11 12 13 13 13 13 13 12 12 10 9 8 8 8
13 13 13 13 14 15 15 15 15 15 14 13 12 11 10 10 9 8 6 6 5 5 4 5 5 6 7 8 10 11 13 14 15 16 15 15 15 15 14 13 12 11 10
15 15 15 15 15 16 16 16 16 16 15 14 13 12 12 11 10 9 8 7 6 6 5 5 6 7 7 9 10 11 13 14 16 17 18 18 17 17 17 17 16 15 14
18 17 17 17 17 17 17 17 17 17 16 15 14 13 13 13 12 12 10 9 8 7 7 7 7 8 8 9 10 11 13 14 15 17 18 18 19 19 20 20 19 19 18
19 19 19 18 18 18 18 18 18 17 17 16 15 14 14 14 14 14 13 12 11 10 9 9 10 10 10 10 11 12 13 14 15 16 17 18 19 19 20 21 21 21 20
20 19 20 19 19 19 18 18 18 18 17 16 16 16 15 15 15 15 16 15 14 14 13 12 12 13 12 12 12 13 14 15 16 17 17 18 19 19 20 21 21 22 22
21 20 19 19 20 20 19 19 19 18 17 16 16 17 16 17 17 17 17 17 17 17 17 16 15 15 14 14 14 14 15 16 16 17 18 18 19 19 20 20 21 21 22
22 21 20 20 21 21 21 21 21 20 19 18 18 18 18 18 19 19 19 19 19 19 20 20 19 18 17 17 17 16 16 17 17 18 19 19 20 20 20 21 21 21 21
25 23 22 21 22 23 23 22 22 22 21 20 20 19 20 20 21 21 21 21 21 21 22 22 21 21 20 20 19 18 18 18 18 18 19 20 20 20 20 20 21 21 21
28 26 24 24 24 25 25 25 25 24 23 23 22 22 22 22 22 22 22 22 23 23 23 23 23 24 23 23 22 20 19 19 19 19 20 20 20 20 20 20 20 21 21
31 29 27 27 27 28 28 28 27 26 26 25 24 23 23 22 23 22 23 23 24 24 25 25 26 26 26 25 24 22 22 21 21 21 20 21 21 21 20 20 20 21 22
33 32 31 31 30 31 32 31 30 29 28 26 24 24 23 23 24 24 24 24 24 25 26 26 27 26 27 27 26 25 25 23 22 22 21 21 22 21 20 20 20 21 23
34 35 34 33 35 35 35 35 34 30 27 24 23 23 23 23 23 24 24 25 25 26 26 26 26 27 28 28 28 28 27 26 25 24 23 23 23 23 21 20 20 20 22
36 37 36 37 38 37 38 39 34 26 23 22 22 21 22 22 23 23 24 25 26 26 26 26 25 26 27 28 29 30 29 27 26 25 24 23 23 23 22 21 20 20 21

GEFSSE_500_meanwind_042.txt.gz
Wind_Speed
9 11 13 14 14 14 14 14 13 12 11 10 9 8 8 7 6 5 5 4 4 4 5 6 6 7 7 7 8 9 10 11 12 13 14 15 15 16 15 15 15 14 13
7 9 11 12 13 13 13 13 13 12 11 10 9 8 8 7 6 5 4 4 3 3 4 5 6 7 8 8 9 9 8 9 10 11 13 14 14 15 16 16 16 15 14
6 7 9 11 12 12 12 12 12 12 12 11 10 9 8 7 6 5 4 3 2 2 3 4 5 6 7 9 9 9 8 9 9 9 11 11 12 13 14 15 16 16 15
6 6 8 9 10 11 11 12 12 12 12 11 10 9 8 7 6 5 4 3 2 2 2 3 4 5 7 8 9 10 9 9 9 8 9 9 10 11 12 13 15 16 16
6 6 6 8 9 9 10 10 11 11 11 11 10 8 8 7 6 5 4 3 2 1 2 3 4 4 5 7 9 11 10 10 9 8 8 8 8 10 11 11 12 14 15
5 5 5 6 7 7 8 9 9 9 10 10 10 9 8 6 5 4 4 3 2 1 1 2 3 4 4 6 9 10 11 11 10 8 8 8 7 8 9 9 11 12 14
5 4 4 4 5 5 6 6 7 8 8 9 9 8 8 6 5 4 4 3 2 1 1 2 2 3 4 5 7 9 11 12 11 10 10 9 9 8 8 8 8 10 12
5 3 3 3 3 3 4 4 5 5 6 7 7 7 7 6 5 4 3 3 2 1 1 1 2 3 4 4 6 7 9 11 11 11 11 10 10 9 9 9 9 9 10
4 3 2 1 1 0 1 2 2 3 4 5 5 6 6 5 4 4 3 2 1 0 1 2 2 3 3 4 5 7 8 9 10 10 10 11 11 10 9 9 9 9 10
4 3 1 1 1 2 2 2 2 2 3 4 4 5 4 4 3 3 2 2 1 1 2 2 2 2 3 4 6 7 8 9 10 10 10 10 11 11 11 10 10 10 10
4 3 3 2 2 3 4 5 5 5 5 4 5 5 5 4 3 3 2 2 2 3 3 3 3 3 4 5 6 7 8 9 10 10 10 10 10 11 11 11 11 11 12
5 5 5 5 4 5 6 7 7 7 7 6 6 6 6 5 4 4 4 3 3 4 4 4 4 4 4 5 7 8 9 10 11 11 11 11 11 11 10 11 11 12 12
7 7 7 7 7 7 7 8 8 9 9 9 9 8 8 7 7 6 5 5 5 5 5 5 5 5 6 6 7 8 10 11 12 12 13 13 12 12 11 10 11 12 12
9 9 10 11 10 10 10 10 10 11 11 11 11 10 10 10 9 8 7 7 6 6 6 6 7 7 7 7 8 9 10 12 13 13 14 15 15 14 14 13 12 12 12
12 12 12 13 13 13 13 12 12 12 12 12 12 12 12 12 11 11 10 9 9 8 8 8 8 8 8 8 9 10 11 12 14 15 15 16 16 17 17 16 16 15 15
15 16 16 16 16 16 16 15 14 14 14 14 14 14 14 14 13 13 12 12 11 10 10 10 10 9 10 10 10 11 12 13 14 15 16 17 17 18 19 19 19 19 18
19 19 19 19 19 18 18 17 17 16 16 16 16 16 16 16 15 15 14 14 14 13 13 13 12 12 11 11 11 12 12 13 14 15 16 17 18 19 19 20 20 21 21
24 23 23 22 21 20 20 19 19 18 18 17 17 17 17 17 17 16 16 16 16 16 15 16 15 14 14 14 13 13 14 14 15 16 16 17 18 19 20 21 21 22 22
26 26 25 23 23 23 22 22 21 21 20 19 19 19 19 19 19 18 18 18 18 17 17 17 17 17 16 16 16 16 16 16 16 17 18 18 19 19 20 21 21 22 22
29 28 27 26 26 26 25 24 23 23 22 21 21 21 22 21 20 20 19 19 19 19 19 19 19 18 19 19 18 18 18 18 18 18 19 19 20 20 20 21 22 22 22
32 31 31 30 30 29 27 27 27 26 25 25 24 23 23 23 22 22 21 21 21 21 21 20 21 21 21 21 21 20 20 20 20 20 20 21 21 21 22 22 22 22 23
35 35 35 34 33 32 30 30 30 30 29 29 28 27 25 25 24 24 24 22 22 22 21 21 22 22 22 22 22 23 23 23 23 22 22 22 22 22 22 23 23 23 23
36 36 37 36 36 35 34 34 35 34 34 34 32 30 27 27 26 26 25 24 23 22 22 23 23 23 23 23 23 23 24 25 24 23 24 24 24 24 24 24 23 23 23
35 37 38 39 39 38 38 38 38 37 38 37 35 32 30 27 26 25 24 24 23 23 23 23 23 23 23 23 24 25 25 26 26 25 25 26 25 25 25 25 24 24 23
36 36 37 39 40 40 41 41 41 40 41 40 39 34 31 29 27 25 24 24 23 23 22 22 22 22 23 24 24 25 26 26 26 26 26 25 25 26 25 26 26 25 24
36 37 38 39 40 41 42 43 43 42 43 43 40 36 32 29 26 25 23 23 23 21 21 22 22 23 23 23 24 24 25 25 26 25 25 25 25 25 25 26 26 26 25

GEFSSE_500_meanwind_048.txt.gz
Wind_Speed
9 10 11 12 12 13 13 13 12 11 10 9 8 7 6 5 4 3 3 3 3 3 4 5 6 6 6 7 8 8 9 10 11 11 11 11 12 13 12 12 12 11 11
7 9 10 11 11 12 12 12 12 12 11 10 8 7 6 5 4 3 2 2 2 2 3 4 5 6 6 7 7 8 9 10 11 11 11 12 12 12 13 13 13 13 12
6 7 9 9 10 10 11 11 12 12 11 10 9 8 7 6 4 3 2 1 1 1 2 3 5 5 6 7 8 8 9 9 9 10 11 11 12 12 12 12 13 14 14
5 6 7 8 9 9 9 10 11 11 11 10 9 8 7 6 5 3 2 2 1 0 1 2 3 4 6 7 8 8 9 9 8 8 9 10 10 11 11 12 11 12 13
4 5 5 6 7 7 8 8 9 9 10 10 9 8 7 6 5 4 3 2 2 1 1 2 2 3 4 6 7 8 9 9 8 7 8 9 8 8 8 9 10 10 11
4 4 4 4 5 5 6 6 7 7 8 8 8 8 7 7 6 5 4 3 3 2 2 2 2 3 3 4 6 7 9 9 8 8 8 8 8 8 8 8 8 8 10
4 3 3 2 2 3 3 4 5 5 6 7 7 7 6 6 6 5 5 4 4 3 3 2 2 3 3 4 5 6 7 8 9 9 8 8 7 6 7 7 8 8 9
4 3 2 2 1 0 1 2 2 3 4 4 5 5 5 5 5 5 5 5 4 4 4 3 3 3 3 4 5 5 6 7 9 9 9 9 8 7 7 7 7 8 8
2 2 1 2 2 3 2 2 2 2 2 2 3 3 4 4 4 4 5 5 5 4 4 4 3 3 3 4 5 5 6 7 8 8 9 9 9 8 8 8 8 9 9
1 0 1 2 3 4 5 5 5 5 4 4 4 4 4 4 4 5 5 5 5 5 4 4 4 4 4 5 5 5 6 6 7 7 8 8 9 8 8 8 9 9 9
2 2 3 4 5 6 6 7 8 8 8 7 7 6 6 5 5 6 6 6 6 5 5 4 4 4 5 5 6 6 7 7 6 7 7 7 8 8 9 9 9 9 9
5 5 5 6 6 7 8 9 10 10 10 10 10 9 8 8 8 8 8 7 7 6 6 5 5 5 6 6 7 7 7 7 6 7 8 8 8 9 9 9 10 9 9
8 8 8 8 8 9 9 10 11 12 12 12 12 12 11 11 10 10 10 9 8 8 7 7 7 7 7 7 8 8 8 7 7 8 9 9 10 10 10 10 10 10 10
11 11 11 10 10 11 11 12 13 14 14 14 14 14 14 13 13 12 12 11 10 10 9 8 8 8 8 8 8 9 9 8 8 9 10 10 11 11 12 12 11 11 11
14 13 13 13 13 13 14 15 15 16 16 16 17 16 16 16 15 15 14 13 12 12 11 10 10 10 9 9 9 9 10 9 9 10 11 11 12 13 13 14 13 13 13
17 16 16 17 16 16 16 17 17 17 18 18 18 18 18 18 17 17 16 16 15 14 13 13 12 12 12 11 11 11 11 11 10 10 11 12 12 13 14 15 15 15 15
21 20 19 20 19 19 19 18 19 19 19 20 21 20 20 20 20 19 19 18 18 17 16 15 15 15 14 13 13 12 12 12 12 11 12 12 13 14 14 16 16 17 17
26 25 24 23 23 22 22 21 21 21 21 22 22 22 22 21 22 21 21 20 20 19 19 18 18 17 16 15 15 14 14 14 14 13 13 13 14 14 15 16 17 17 18
29 29 28 27 25 26 25 25 24 24 24 24 23 22 23 22 23 22 22 22 22 22 21 20 20 19 18 17 16 16 15 16 15 15 15 14 14 15 16 16 17 18 19
32 32 32 31 29 29 29 29 28 28 27 26 25 24 24 24 24 23 24 24 24 24 24 23 22 21 20 19 18 17 17 17 17 17 17 16 16 16 17 17 17 18 19
35 35 34 34 34 33 32 31 32 32 31 29 28 27 27 27 26 26 26 27 26 26 26 24 23 23 23 21 20 19 19 19 19 19 19 19 18 18 18 18 18 19 19
37 37 36 36 36 36 35 34 34 35 34 32 31 30 30 29 29 28 28 29 28 28 28 26 26 25 25 24 23 22 21 21 21 21 21 21 20 20 20 20 20 20 19
38 37 37 37 37 37 37 36 36 35 35 35 34 33 33 32 31 31 30 30 31 31 29 27 26 25 25 24 24 23 23 23 23 22 22 22 22 22 22 21 21 22 21
36 37 37 37 37 37 37 37 36 36 36 35 35 36 36 36 35 34 32 31 31 32 29 28 27 26 26 25 25 24 24 24 23 23 23 23 23 23 23 24 24 24 23
35 35 36 37 37 37 37 37 37 37 36 36 37 37 37 38 37 35 35 34 32 31 29 28 29 28 27 26 26 25 24 23 23 24 23 24 24 23 23 24 24 24 23
33 34 35 36 37 37 37 38 38 37 36 37 38 38 39 38 39 38 35 34 32 29 28 26 27 28 27 26 26 24 23 23 23 23 24 24 23 23 23 23 24 24 23

GEFSSE_500_meanwind_054.txt.gz
Wind_Speed
11 11 12 12 12 12 12 12 11 11 10 10 10 9 9 8 7 6 5 5 5 6 7 9 10 10 11 12 12 13 13 12 13 13 13 12 12 11 12 11 11 10 9
9 10 10 11 11 11 11 11 11 10 10 10 9 9 9 8 7 6 5 5 5 5 6 7 8 9 10 11 11 11 12 12 13 13 13 12 12 12 12 12 12 12 11
8 9 9 9 9 10 10 10 10 10 9 9 9 9 8 8 7 6 5 4 3 3 4 6 7 8 9 10 10 11 11 11 12 12 12 12 13 13 13 12 12 11 11
7 8 8 8 8 8 8 8 8 8 8 8 8 8 8 7 7 6 5 4 3 1 2 3 5 7 8 9 10 10 10 10 10 11 11 11 11 12 12 12 11 10 10
6 6 6 7 7 6 6 6 6 7 7 7 7 7 7 7 7 6 5 4 3 1 1 2 4 6 7 8 9 10 10 10 10 9 9 8 9 9 10 10 9 9 9
5 4 5 5 5 4 4 4 4 4 5 5 5 6 6 6 6 6 5 4 3 2 1 2 3 4 5 6 7 8 8 9 9 8 8 7 6 6 7 6 6 7 7
3 3 3 2 2 2 2 2 2 2 3 4 4 4 4 4 5 5 5 4 4 3 3 3 3 4 4 5 5 6 7 7 8 8 7 6 5 5 5 5 6 6 6
2 2 1 0 0 1 1 2 2 3 3 4 4 4 4 4 4 4 4 4 4 4 4 4 4 4 4 4 4 4 5 6 7 7 7 6 6 5 5 4 5 5 5
2 2 2 2 2 2 3 3 4 4 5 6 6 6 6 5 5 5 4 4 5 5 5 5 5 4 4 4 3 3 4 5 6 6 6 6 5 5 4 4 4 5 5
2 3 3 3 3 4 4 5 6 6 7 8 8 8 8 7 7 6 6 6 6 6 6 6 5 5 5 4 3 3 3 4 5 5 6 5 5 5 4 3 4 5 5
4 5 5 6 6 6 6 7 7 8 8 9 10 10 10 10 9 9 8 8 8 8 7 7 6 6 5 5 4 3 4 5 5 5 5 5 5 5 5 4 4 4 4
8 8 8 8 8 8 8 9 9 9 10 10 10 11 12 12 12 12 11 10 10 10 9 8 7 7 6 6 4 4 5 6 5 5 6 6 5 5 5 5 5 5 5
11 11 12 11 11 11 11 11 11 11 11 11 12 12 13 14 14 14 14 13 13 12 11 10 9 8 7 7 6 5 6 6 6 6 6 7 7 6 6 6 6 6 6
13 13 14 14 14 14 14 13 13 13 13 14 13 13 14 15 15 15 15 15 15 14 14 13 11 10 9 8 7 7 8 8 7 7 7 7 8 8 7 7 7 7 7
17 16 16 16 17 17 16 16 16 16 16 16 16 15 15 16 16 17 17 17 17 17 16 15 14 13 12 10 10 9 10 9 9 8 8 8 8 8 8 8 8 9 8
21 20 19 18 18 18 18 18 19 19 18 18 18 17 17 17 18 18 19 19 19 19 18 18 16 15 14 13 12 12 11 11 11 10 9 9 9 9 9 9 10 10 10
25 24 23 21 21 20 20 20 20 20 20 20 19 19 19 18 18 19 20 20 20 20 20 19 19 18 17 16 15 14 13 13 13 12 11 11 11 10 10 10 11 11 12
28 27 26 26 25 25 24 23 23 23 23 23 22 21 21 20 19 19 20 20 21 21 21 21 21 20 20 19 18 17 16 15 15 14 13 13 12 12 12 11 12 12 13
32 31 30 29 29 28 27 26 26 26 26 26 25 24 22 22 21 21 21 21 21 21 21 21 22 22 22 21 21 20 18 16 16 16 15 14 14 13 13 13 13 13 14
36 35 34 33 32 31 30 29 29 28 28 29 28 27 26 25 24 23 22 22 22 22 22 22 22 23 23 23 23 22 20 19 18 17 17 17 16 15 14 15 15 15 15
39 38 38 37 35 34 33 32 32 31 32 31 31 30 30 28 26 25 24 24 23 22 23 24 24 24 24 25 25 24 23 22 20 19 18 19 18 17 16 17 17 18 18
41 42 42 41 39 37 35 34 34 34 33 33 32 32 32 29 27 25 26 25 24 23 24 25 25 25 26 26 26 26 25 24 24 22 20 20 20 20 19 19 19 20 20
40 41 42 42 41 40 38 37 36 35 35 34 33 33 33 31 29 28 27 27 26 26 25 24 25 26 27 27 28 28 28 26 26 25 24 22 21 22 22 22 22 22 23
40 41 41 42 41 40 40 39 38 36 35 35 35 35 33 32 32 30 28 28 28 28 26 26 26 26 28 28 29 29 30 29 27 26 26 25 24 23 23 23 23 24 24
36 37 38 38 39 39 40 39 38 37 36 36 36 36 35 34 33 32 31 29 29 29 27 27 27 26 27 28 29 30 31 30 29 28 27 27 26 25 24 23 23 24 25
32 33 34 35 36 37 38 38 38 38 37 36 36 36 35 34 34 33 32 31 30 29 28 28 29 29 28 28 28 29 31 30 29 29 28 28 26 25 25 23 23 23 24

GEFSSE_500_meanwind_060.txt.gz
Wind_Speed
11 11 12 13 13 14 15 15 15 15 14 14 12 11 10 9 8 7 6 5 4 3 2 4 6 7 9 11 12 12 12 12 12 12 13 12 12 12 12 12 11 11 10
10 10 11 11 12 13 14 14 14 14 14 13 13 12 10 9 8 7 7 5 4 3 2 3 4 5 6 8 9 10 11 11 11 11 12 13 13 13 13 13 12 12 11
9 8 9 10 10 11 12 13 13 13 13 13 12 11 11 10 9 8 7 6 4 3 2 2 3 4 5 7 8 9 10 10 10 10 11 13 13 13 14 13 13 12 12
7 7 7 8 9 9 10 11 12 12 12 12 11 11 10 9 8 8 7 6 5 3 2 0 1 3 4 6 7 8 9 9 9 10 10 11 11 11 12 12 12 11 11
6 5 5 6 7 7 8 9 9 10 10 10 10 10 9 9 8 7 6 5 4 4 3 2 2 3 4 5 6 7 8 9 8 9 9 9 9 9 10 10 10 9 9
4 3 3 4 5 5 6 6 7 8 8 8 8 8 8 8 7 7 6 5 5 4 4 3 3 3 3 5 6 7 7 8 8 8 8 7 7 7 8 8 8 8 8
2 2 2 2 2 3 3 4 5 5 6 6 7 7 7 6 6 6 6 6 5 5 4 4 3 3 3 4 5 6 6 6 6 7 7 7 7 7 6 6 6 6 6
1 1 1 1 0 0 1 2 2 3 4 4 5 5 6 6 6 6 6 5 5 5 5 4 4 4 4 4 5 5 5 5 5 6 6 6 7 7 6 5 4 5 5
2 3 3 3 3 2 2 2 3 3 4 4 5 5 5 5 5 5 5 6 5 5 5 5 4 4 4 4 5 4 4 4 5 5 5 5 6 6 5 4 5 5 5
5 5 5 5 5 5 5 5 5 5 5 6 6 6 6 6 6 6 6 6 6 6 5 5 5 5 4 4 4 4 4 4 4 4 5 5 5 5 4 4 4 4 4
7 7 7 7 7 7 8 8 7 8 8 8 8 8 8 8 8 8 7 7 7 7 6 6 6 5 5 4 4 4 3 4 4 4 5 5 5 5 5 5 5 5 4
10 10 10 10 10 10 11 10 10 10 10 10 10 10 10 10 10 10 10 9 9 8 8 7 7 6 6 6 5 4 4 4 4 4 5 5 5 5 5 5 5 5 5
14 13 13 13 13 13 13 13 13 13 13 13 12 12 12 12 12 12 12 12 11 11 10 9 8 8 8 8 7 6 5 4 4 4 5 5 5 5 6 6 6 6 6
17 17 17 17 16 16 17 17 17 16 15 15 15 14 14 14 14 14 14 14 14 13 12 12 11 10 10 10 9 8 7 6 5 5 6 6 6 6 6 7 7 7 7
21 21 21 21 21 20 19 19 19 19 18 17 16 15 15 16 16 16 16 16 16 16 15 14 13 13 12 12 11 10 9 8 7 7 7 7 7 7 7 7 8 8 8
24 24 24 24 24 24 23 22 22 21 20 19 18 17 17 18 18 18 18 18 17 17 17 17 16 15 14 14 13 12 11 10 9 9 9 9 9 9 8 8 9 9 9
29 28 28 27 26 26 26 25 25 24 22 22 21 21 20 20 20 19 19 19 19 19 18 18 18 17 16 16 16 15 14 13 12 11 11 11 10 10 10 9 10 10 10
32 32 32 32 31 29 28 28 27 26 25 25 24 24 23 22 22 22 21 20 21 20 20 20 19 19 19 18 17 17 16 14 14 14 13 13 13 12 12 11 11 11 11
36 35 35 35 35 34 32 31 29 29 28 27 26 25 26 26 25 23 23 23 23 22 21 21 21 21 20 20 19 18 18 17 16 16 16 15 15 14 14 13 13 12 12
38 38 37 38 38 37 36 35 33 32 31 30 29 29 28 27 27 26 26 26 25 25 23 22 23 23 22 21 20 20 20 20 19 18 18 18 17 16 16 15 14 14 14
42 40 40 39 38 39 39 39 37 35 35 34 32 30 29 28 29 28 27 27 27 26 25 24 24 24 23 23 23 22 22 21 21 20 20 20 20 18 18 17 16 15 15
42 43 42 41 41 41 41 40 39 38 37 37 35 34 33 32 32 31 30 29 29 28 27 26 25 25 24 25 25 24 23 23 23 23 22 22 22 21 20 19 18 17 16
41 42 41 41 41 40 40 40 39 38 38 37 37 36 35 34 33 32 32 31 28 27 27 27 27 26 26 26 26 25 25 25 24 24 24 24 24 23 22 21 20 20 18
38 39 38 38 38 39 39 39 39 39 38 37 37 36 36 35 35 33 31 31 31 30 29 28 30 29 28 28 27 27 27 26 26 25 26 26 26 26 25 24 23 22 20
33 32 33 34 34 35 36 36 36 36 36 37 36 36 36 36 35 35 34 33 31 31 30 30 29 29 30 29 28 28 28 28 28 28 28 29 29 28 27 26 25 24 23
26 27 29 30 31 31 32 32 33 33 34 35 35 34 34 34 34 34 33 33 32 30 30 30 29 29 29 30 29 29 29 29 29 30 29 30 30 30 29 28 27 26 25

GEFSSE_500_meanwind_066.txt.gz
Wind_Speed
13 13 13 13 13 13 13 12 12 12 12 11 11 10 10 9 8 8 7 7 7 6 6 7 8 8 9 10 11 11 10 10 10 11 11 11 10 10 10 10 10 10 10
11 12 12 12 12 12 12 12 12 12 11 11 11 10 10 9 8 7 7 6 6 6 5 5 6 6 7 7 7 8 8 9 9 9 10 10 10 11 11 11 11 11 11
9 10 10 10 10 11 11 11 11 11 11 11 10 10 9 9 8 7 7 6 6 5 5 4 5 5 5 5 6 6 7 8 9 9 9 10 10 10 11 11 11 11 11
7 8 8 8 8 9 9 9 9 9 9 9 9 9 9 8 8 7 7 6 5 5 4 4 3 3 3 4 5 5 6 7 7 7 8 8 8 8 9 10 10 10 9
6 6 6 6 6 6 7 7 7 8 8 8 8 8 7 7 7 6 6 6 5 5 4 3 3 2 3 3 4 5 5 6 6 6 6 6 6 7 7 8 8 7 7
5 4 4 4 4 4 5 5 5 6 6 6 6 6 6 6 6 6 5 5 5 4 3 3 2 2 2 2 3 4 5 5 6 6 5 5 5 5 6 6 6 6 6
4 4 4 4 3 3 3 3 4 4 4 4 4 4 4 4 4 4 4 4 4 3 3 2 2 1 1 1 2 3 4 4 5 5 5 5 5 5 5 4 4 4 4
5 5 5 5 5 5 5 4 4 4 3 3 3 3 3 3 3 3 3 3 3 2 2 2 1 1 1 1 2 2 3 3 4 4 4 4 4 4 3 2 2 2 3
6 7 7 8 8 8 8 7 7 6 6 5 4 4 4 3 3 3 3 3 3 2 2 2 2 2 2 2 2 2 2 3 3 4 4 3 3 3 2 2 2 3 3
9 9 10 10 11 11 11 11 10 10 9 8 7 7 6 6 5 5 5 4 4 4 3 3 2 3 2 2 2 2 2 3 4 4 3 3 3 3 2 2 2 2 2
12 12 12 13 14 14 14 14 13 13 12 11 10 10 9 8 8 7 7 7 6 6 5 5 4 4 4 3 3 3 3 3 4 4 4 4 3 3 2 2 2 2 2
15 15 16 16 17 17 17 16 16 16 15 15 14 13 12 11 11 10 9 9 8 8 8 7 7 6 5 5 4 4 4 4 5 5 5 4 4 4 3 3 3 3 3
18 19 20 20 20 20 20 20 19 18 18 18 18 17 16 15 14 13 12 11 10 10 10 9 9 8 8 7 6 6 6 6 6 6 6 5 5 5 4 4 3 4 4
22 22 23 24 24 25 25 23 23 22 21 21 20 20 18 17 16 15 14 13 13 12 12 12 11 11 10 9 9 8 8 8 7 7 7 7 6 6 6 5 5 5 5
26 26 27 27 28 29 28 27 26 25 25 24 22 21 21 20 18 18 17 16 15 15 15 14 14 13 13 12 11 11 10 10 9 9 9 9 8 8 7 7 6 6 6
30 31 31 31 31 32 31 30 30 29 28 27 27 26 24 23 22 21 20 19 18 17 17 16 16 16 15 15 14 14 13 13 12 11 11 10 10 10 9 9 8 8 8
34 34 35 35 35 35 34 33 32 33 32 31 30 29 27 27 26 25 23 22 21 20 18 18 18 18 17 17 16 16 15 15 15 14 13 13 12 12 11 11 11 10 10
37 37 37 37 38 38 38 37 35 34 34 33 32 31 30 30 30 29 26 24 23 23 21 20 20 20 19 19 18 18 17 17 17 17 16 15 15 14 14 13 13 12 12
40 40 40 40 39 39 40 40 39 38 36 35 33 33 32 31 31 31 30 28 26 24 24 23 23 22 21 20 20 20 20 19 19 19 19 18 17 16 16 16 16 15 14
41 42 42 42 42 42 42 42 41 41 40 39 37 36 34 33 32 31 30 29 27 26 25 25 25 24 23 23 22 21 21 21 21 21 21 20 19 19 18 18 18 17 17
40 41 42 42 42 43 43 43 42 42 42 41 41 40 39 36 35 34 31 31 31 28 27 26 26 25 24 24 23 23 23 23 23 23 23 22 22 21 21 20 20 20 19
37 37 38 40 40 41 42 43 42 42 42 41 41 41 41 39 38 37 34 33 32 30 29 28 27 26 26 25 25 24 24 24 24 24 24 24 24 24 23 23 23 22 21
34 34 34 35 36 37 39 40 41 41 41 41 41 41 41 40 40 40 37 35 34 32 31 30 29 28 27 27 27 25 25 24 25 25 26 26 26 26 25 25 25 25 24
29 29 30 31 32 33 34 35 36 38 39 40 40 40 40 39 40 39 39 39 38 35 33 32 31 30 30 29 28 27 28 27 26 26 27 27 27 27 27 27 27 26 26
24 24 25 27 28 29 30 31 32 33 34 36 37 38 38 38 39 38 38 37 37 37 36 35 33 32 31 30 29 28 29 30 29 29 29 30 30 29 29 29 28 28 28
20 20 21 21 21 22 24 26 27 29 30 31 33 35 36 37 37 38 38 38 37 37 37 35 34 32 33 32 32 31 30 30 30 32 32 31 31 31 31 31 30 31 30

GEFSSE_500_meanwind_072.txt.gz
Wind_Speed
7 8 8 8 7 7 6 6 6 6 5 5 5 6 6 6 6 6 7 7 7 7 8 9 10 10 11 11 11 11 11 10 11 10 10 10 10 10 9 10 10 10 9
6 6 6 6 6 6 6 6 6 5 5 5 5 5 5 5 5 5 6 6 6 6 6 7 7 8 8 9 9 9 10 9 9 10 10 10 10 10 10 10 10 10 9
4 4 5 5 5 5 5 5 5 5 5 5 5 5 5 5 4 5 5 6 5 5 6 6 6 6 7 7 7 7 7 8 8 8 9 10 9 8 8 8 8 8 9
3 3 3 3 4 4 4 4 4 4 4 4 4 4 4 4 4 4 4 5 5 5 5 5 5 5 6 6 6 6 7 7 7 7 8 8 6 5 6 7 7 8 8
4 4 3 4 4 4 4 3 4 4 4 4 4 4 4 4 4 4 4 4 5 5 5 5 5 4 5 5 5 6 6 6 6 5 6 6 5 4 5 6 7 6 6
6 5 5 5 5 5 5 5 5 4 4 4 4 4 4 4 4 4 4 5 5 5 5 5 5 4 4 4 4 5 5 5 5 4 4 5 3 3 4 5 5 5 4
7 8 8 8 7 7 7 7 6 6 6 6 6 5 5 5 5 5 5 5 5 5 5 5 5 4 4 4 4 4 4 4 4 4 4 4 3 3 3 3 4 3 3
9 10 10 10 10 10 10 9 9 9 8 8 8 7 7 7 6 6 6 6 6 6 5 5 5 4 4 4 4 4 3 3 3 3 3 3 3 3 3 3 3 3 3
12 12 13 13 13 13 13 13 13 12 11 11 10 10 9 8 8 8 8 7 7 7 6 6 5 5 4 4 4 4 3 3 2 2 3 3 2 2 2 2 2 2 3
16 15 15 16 16 15 15 15 16 16 15 14 13 13 12 11 10 10 10 9 9 9 8 7 6 6 5 5 5 4 4 3 2 2 3 3 2 2 2 1 1 2 2
19 19 19 19 19 18 19 19 18 19 18 18 17 16 15 14 14 13 12 11 11 11 10 9 8 7 7 6 6 5 4 4 3 3 4 3 3 3 2 2 2 2 2
22 22 22 22 22 22 22 22 22 21 21 21 20 20 19 18 17 16 15 14 14 13 12 11 10 9 9 8 7 7 6 5 4 4 4 4 3 3 2 2 2 2 2
25 25 25 26 26 26 25 24 24 24 24 24 24 23 23 22 20 19 18 17 16 16 15 14 13 12 11 10 9 9 8 7 6 6 6 5 5 4 3 3 3 3 3
28 28 29 29 29 29 28 28 28 28 28 27 26 24 25 24 23 21 21 20 19 18 17 17 16 15 14 13 12 11 10 9 8 8 8 7 6 6 5 4 4 4 4
32 32 32 32 32 32 32 32 31 30 31 31 30 28 26 26 25 24 24 23 22 21 20 19 18 17 16 15 14 13 12 11 10 10 10 9 8 8 7 6 6 5 5
35 36 36 36 36 35 35 35 35 33 33 32 32 31 30 29 27 26 26 26 25 23 22 21 20 20 19 18 16 15 14 13 13 12 12 11 10 10 9 9 8 8 7
37 38 38 38 38 38 38 38 37 37 36 35 34 34 33 32 31 28 28 28 28 26 25 24 22 21 21 20 19 18 17 16 15 14 14 13 12 12 11 10 10 10 9
39 39 39 39 39 39 39 39 39 40 39 38 37 35 34 33 33 31 30 30 30 29 28 27 26 24 23 22 21 20 19 18 18 17 16 15 15 14 13 13 12 12 11
38 39 39 39 40 40 40 40 39 40 40 40 39 37 37 36 34 32 32 31 30 30 29 29 29 27 25 24 23 22 21 20 20 19 18 18 17 17 16 15 15 14 14
35 36 37 37 38 39 39 40 40 41 41 40 40 40 38 38 36 35 32 31 32 32 31 30 30 29 27 27 26 25 23 22 22 21 21 20 20 19 18 18 17 17 17
32 33 34 34 35 36 38 39 39 40 40 40 40 40 39 38 38 37 35 34 33 32 32 32 31 29 28 28 26 25 25 25 25 23 23 23 22 21 21 20 19 19 19
30 31 31 31 32 33 35 36 37 38 39 38 39 39 40 39 38 38 38 36 36 34 33 34 33 31 30 29 27 27 25 24 25 25 25 24 24 23 22 22 21 21 21
27 27 28 29 30 30 31 33 34 35 36 37 37 37 38 38 37 37 38 38 36 34 34 33 33 33 32 32 29 28 27 26 26 25 25 25 25 24 24 23 23 22 22
25 25 26 26 27 27 28 29 30 31 32 33 35 36 36 36 36 37 36 37 36 35 34 34 33 33 33 32 32 31 30 29 27 26 26 26 26 26 26 25 25 24 23
22 22 23 22 23 23 24 25 26 28 29 29 30 32 33 33 35 35 35 36 36 35 35 35 35 34 33 33 32 32 32 31 30 29 28 28 27 27 27 27 27 26 25
20 20 20 20 20 20 21 21 22 23 24 25 26 27 28 29 31 32 33 35 35 35 35 36 36 35 33 33 33 33 33 32 31 30 29 29 29 29 29 28 29 28 28

GEFSSE_500_meanwind_078.txt.gz
Wind_Speed
4 4 5 5 5 5 4 4 3 2 2 2 2 3 4 5 6 7 7 8 8 9 9 10 10 11 12 12 12 12 12 12 12 12 11 11 11 10 9 9 9 8 7
2 2 2 3 3 3 2 2 1 1 1 1 2 3 4 5 5 6 6 7 8 8 8 8 9 10 11 11 11 11 11 11 11 11 11 11 11 10 10 9 9 7 7
2 2 1 1 0 0 0 0 1 1 2 2 3 3 4 4 5 6 6 7 7 7 7 7 8 8 9 9 10 10 10 10 10 10 10 11 10 9 9 8 7 6 5
3 3 3 3 2 2 2 2 3 3 3 3 4 4 5 5 6 6 6 7 7 7 7 7 7 7 8 8 8 8 9 9 9 9 9 8 7 7 7 6 5 4 4
5 5 5 5 5 5 5 5 5 5 5 5 5 5 6 6 6 6 7 7 7 7 6 6 6 7 7 7 7 7 8 8 8 8 7 7 6 4 4 4 3 3 3
7 7 7 7 7 7 8 7 8 8 8 8 8 7 7 7 7 7 7 7 7 7 7 7 7 7 7 6 6 6 6 7 7 7 6 5 4 3 2 2 2 1 1
9 9 9 9 10 10 10 10 10 10 10 10 10 10 9 9 9 9 9 8 8 8 8 8 7 7 7 6 6 6 6 6 6 6 4 4 3 2 2 1 0 1 1
11 11 12 12 12 13 13 13 14 14 13 13 12 12 12 11 11 11 10 10 10 9 9 9 8 8 8 7 6 6 5 6 6 5 3 3 2 2 2 1 0 0 1
14 14 15 15 15 16 16 16 17 17 17 16 16 15 14 14 13 13 12 12 12 11 10 10 9 9 8 8 7 6 6 6 6 5 3 2 2 2 2 1 0 0 1
17 17 17 18 18 19 19 20 20 20 20 20 19 19 18 17 16 15 15 14 14 13 12 12 11 10 9 9 8 7 7 6 6 4 3 2 2 2 2 1 0 1 1
19 20 21 21 21 21 22 22 23 23 23 23 22 21 21 21 19 18 18 17 16 16 15 14 13 12 11 10 10 9 8 8 7 5 4 4 3 2 2 1 1 1 1
23 24 24 24 25 25 25 26 26 26 26 26 26 25 23 23 23 22 21 20 19 18 18 17 15 14 13 12 11 10 9 9 8 7 6 5 4 3 3 2 2 1 1
27 27 27 27 28 28 28 28 28 29 29 29 28 28 27 26 25 25 24 23 22 21 20 19 18 16 15 14 13 12 11 10 10 9 7 7 6 5 4 4 3 2 2
30 30 30 31 31 31 31 31 31 30 30 30 30 29 29 29 28 27 26 26 26 24 22 22 20 19 18 16 15 14 13 12 11 10 9 8 8 7 6 5 4 4 3
32 33 34 34 34 33 33 34 34 33 33 33 32 31 30 29 30 30 31 29 28 27 26 25 23 22 21 19 18 16 15 14 13 12 12 11 10 9 8 7 6 5 5
33 34 35 35 36 35 35 35 35 35 34 34 33 32 31 30 29 31 30 30 30 30 29 28 26 25 23 22 20 18 17 16 16 15 14 13 12 11 10 9 8 7 7
33 34 35 35 36 36 36 36 36 36 35 34 34 34 34 33 31 30 31 30 31 31 30 29 29 27 26 24 23 21 19 19 19 17 16 15 14 13 12 11 11 10 9
33 34 35 35 35 36 36 36 36 36 36 36 35 34 34 34 34 32 31 30 31 32 32 31 30 29 28 27 25 23 22 21 21 20 18 17 16 15 14 14 13 12 11
32 32 33 33 34 35 36 36 36 36 36 36 36 35 35 34 34 33 32 32 32 33 34 32 31 29 29 28 27 26 24 23 23 22 21 20 19 17 16 16 15 14 13
29 29 30 30 31 32 33 34 35 35 36 36 36 36 36 35 35 34 33 34 34 34 34 33 31 31 31 30 29 28 26 25 25 23 23 22 21 20 18 17 17 17 16
27 27 27 28 28 29 30 30 31 33 33 33 34 34 35 35 35 35 35 34 35 35 35 34 32 31 31 30 30 30 28 27 27 26 25 24 23 22 21 20 20 19 18
25 25 25 25 25 25 26 27 28 28 29 30 31 33 33 34 35 36 36 36 36 36 35 35 34 32 31 31 31 31 31 29 29 28 27 26 25 24 23 22 22 21 20
23 23 22 22 22 22 23 23 24 25 26 27 28 30 32 33 33 34 36 36 37 37 37 36 34 33 32 32 31 32 33 31 31 30 29 28 27 26 25 24 24 23 23
22 22 21 21 21 20 20 19 20 22 23 24 26 27 29 30 32 33 34 36 37 37 38 39 36 35 35 33 33 33 33 32 31 30 30 29 28 27 26 26 26 25 25
21 21 21 20 19 18 17 17 18 18 20 21 23 24 26 28 30 32 33 34 35 36 37 37 36 36 35 34 34 33 32 33 32 31 30 30 29 28 27 27 27 26 26
21 21 20 20 19 17 16 16 15 15 15 16 18 21 23 25 26 28 30 32 33 36 37 38 38 37 36 35 35 35 34 33 32 32 32 31 30 30 30 29 28 27 27